[[{"header":{"parameterUnit":"m.s-1","parameterCategory":1,"la1":30.2991,"la2":30.254,"lo1":-89.0895,"lo2":-89.0444,"dy":0.0017,"dx":0.0017,"nx":28,"ny":28,"refTime":"2024-12-18T03:00:00:Z","depth":0,"parameterNumber":2,"parameterNumberName":"U-component_of_WINDS"},"data":[0,0,0,0,0,0,0,0,0,0,0,0,0,0,0,0,0,0,0,0,0,0,0,0,0,0,0,0,0,0,0,0,0,0,0,0,0,0,0,0,0,0,0,0,0,0,0,0,0,0,0,0,0,0,0,0,0,0,1.6941,1.6942,0,1.7013,1.7013,1.7014,1.6999,1.6998,1.6997,1.6995,1.7068,1.7071,1.7074,0,0,0,0,0,0,0,0,0,0,0,0,0,1.6792,1.6795,1.6941,1.6942,1.6943,1.7012,1.7013,1.7014,1.6999,1.6998,1.6996,1.6995,1.7067,1.707,1.7074,0,0,0,0,0,0,0,0,0,0,0,0,0,1.686,1.6796,1.6941,1.6944,1.6945,1.7012,1.7013,1.7015,1.7,1.6998,1.6996,1.6994,1.7065,1.707,1.7075,1.7143,0,0,1.7089,1.7091,0,0,0,0,0,0,0,0,1.6856,1.6865,1.6943,1.6944,1.6945,1.6995,1.6987,1.7058,1.7,1.6979,1.6995,1.6993,1.7045,1.7051,1.7069,1.7147,1.715,1.709,1.7092,1.7094,1.7096,0,0,0,0,0,0,0,1.6851,1.6862,1.6969,1.6944,1.6945,1.6942,1.6949,1.7001,1.7022,1.6981,1.698,1.6988,1.7045,1.7065,1.7071,1.7151,1.7089,1.7094,1.7097,1.7098,1.7291,1.7293,0,0,0,0,0,0,1.6845,1.6858,1.6967,1.6971,1.6895,1.6946,1.6954,1.6981,1.7022,1.7026,1.699,1.6987,1.7057,1.7065,1.7073,1.7158,1.7094,1.7099,1.7102,1.7288,1.7291,1.7294,0,0,0,0,0,0,1.6842,1.6855,1.6964,1.6915,1.6928,1.6951,1.6981,1.6983,1.7003,1.7029,1.7032,1.7006,1.7056,1.7066,1.7127,1.716,1.7101,1.7105,1.7286,1.7289,1.7292,1.7326,0,0,0,0,0,0,1.6838,1.6854,1.688,1.6915,1.6931,1.7016,1.6983,1.6986,1.7011,1.7008,1.7044,1.7048,1.7055,1.712,1.7131,1.7165,1.7109,1.7283,1.7287,1.7291,1.7322,1.733,1.7337,0,0,0,0,0,1.6833,1.6886,1.6882,1.6895,1.6964,1.7018,1.7027,1.7034,1.7013,1.704,1.7057,1.7047,1.7154,1.7126,1.7139,1.7175,1.7281,1.7286,1.7291,1.7319,1.7329,1.7337,0,0,0,0,0,0,1.6854,1.6891,1.6886,1.6953,1.6983,1.7016,1.7049,1.7044,1.708,1.7076,1.7083,1.7092,1.7153,1.717,1.7138,1.7244,1.7215,1.7223,1.7231,1.7241,1.7248,1.7243,1.7113,0,0,0,0,0,1.6866,1.6907,1.6937,1.6993,1.7008,1.7027,1.705,1.7053,1.7085,1.7097,1.7118,1.7149,1.719,1.7216,1.7255,1.7324,1.7333,1.7356,1.7363,1.7369,1.7376,1.7416,1.7427,1.731,1.731,1.731,0,0,1.6892,1.6918,1.6943,1.6998,1.7022,1.7064,1.7037,1.7083,1.7115,1.7104,1.7162,1.7179,1.7214,1.728,1.7309,1.7295,1.741,1.7376,1.738,1.7384,1.7422,1.7433,1.7443,1.7314,1.7313,1.7313,0,0,1.6961,1.6984,1.7034,1.7059,1.7095,1.7107,1.7119,1.7154,1.7165,1.7223,1.7217,1.7255,1.7324,1.735,1.7372,1.7453,1.7445,1.7465,1.7504,1.7543,1.7552,1.756,1.759,1.7601,1.7472,1.7472,1.7472,0,1.6989,1.7053,1.706,1.7107,1.7132,1.7125,1.7176,1.72,1.7247,1.7264,1.7248,1.7336,1.7359,1.7431,1.7451,1.7469,1.7483,1.7461,1.755,1.7559,1.7566,1.7595,1.7606,1.7474,1.7474,1.7474,1.7474,0,1.7086,1.713,1.7166,1.7213,1.7242,1.729,1.7305,1.7334,1.7335,1.7349,1.741,1.7437,1.7482,1.75,1.75,1.7573,1.7563,1.7548,1.7519,1.758,1.7607,1.7618,1.7477,1.7477,1.7476,1.7475,0,0,1.7169,1.722,1.7233,1.7255,1.7296,1.733,1.7379,1.7424,1.7449,1.7482,1.7524,1.7584,1.7571,1.7596,1.76,1.7634,1.7698,1.7616,1.7617,1.7631,1.7781,1.7792,1.7804,1.7694,1.7696,1.7697,1.7778,0,1.7242,1.7329,1.7338,1.7415,1.7457,1.7452,1.7495,1.7525,1.754,1.7578,1.7594,1.7637,1.7616,1.7632,1.7665,1.7683,1.7728,1.7677,1.7733,1.7735,1.7725,1.7818,1.7829,1.7904,1.7788,1.779,1.7792,0,1.7339,1.7376,1.7458,1.7495,1.7513,1.7551,1.7593,1.763,1.7664,1.7672,1.7701,1.7702,1.7753,1.7721,1.7793,1.7758,1.7781,1.7794,1.7797,1.7803,1.7767,1.7827,1.7928,1.7939,1.7808,1.7807,1.7806,0,1.7393,1.7463,1.7522,1.7541,1.7584,1.7611,1.7631,1.7663,1.769,1.7727,1.7745,1.7787,1.7811,1.7844,1.7856,1.7832,1.7927,1.7896,1.7936,1.7936,1.7956,1.7954,1.8063,1.797,1.797,1.797,1.797,0,1.7474,1.7525,1.7547,1.7583,1.764,1.765,1.7706,1.7724,1.7753,1.7793,1.7791,1.7829,1.7842,1.7882,1.7892,1.795,1.796,1.7969,1.7971,1.797,1.7969,1.7985,1.798,1.7973,1.7972,1.7972,1.7971,0,1.7543,1.756,1.7624,1.766,1.7671,1.7711,1.7743,1.7778,1.7793,1.7844,1.7856,1.7879,1.7927,1.7942,1.7999,1.8005,1.8073,1.8071,1.8062,1.8062,1.8102,1.8098,1.8224,1.8242,1.8138,1.8139,1.8139,0,1.7594,1.7633,1.7675,1.7701,1.7722,1.7765,1.7793,1.7805,1.7834,1.7877,1.7908,1.7955,1.7993,1.8068,1.809,1.8134,1.8133,1.8174,1.8139,1.8137,1.8134,1.8132,1.8137,1.8181,1.8182,1.8183,1.8183,0,1.7683,1.769,1.773,1.7774,1.7807,1.7842,1.7876,1.7898,1.7915,1.7948,1.7997,1.8027,1.8085,1.8132,1.8177,1.8198,1.8194,1.8194,1.8206,1.8205,1.8199,1.8203,1.808,1.8191,1.8191,1.819,1.819,1.8189,1.7745,1.778,1.7815,1.7861,1.7888,1.792,1.7955,1.7975,1.8016,1.8065,1.807,1.8122,1.8157,1.8217,1.824,1.8282,1.827,1.8287,1.8291,1.8295,1.8299,1.8192,1.829,1.829,1.829,1.829,1.8289,0,1.7834,1.7857,1.7899,1.7947,1.7983,1.7977,1.8014,1.8045,1.8092,1.8125,1.8163,1.8219,1.8265,1.8292,1.8338,1.8367,1.8366,1.8378,1.8376,1.8381,1.8306,1.8292,1.8378,1.8378,1.8378,1.8378,1.8378,1.8378,1.7885,1.7944,1.7956,1.8029,1.8051,1.8104,1.8126,1.8156,1.8182,1.8246,1.8284,1.8302,1.8332,1.8381,1.8424,1.843,1.8448,1.8461,1.8467,1.8396,1.8387,1.8378,1.8364,1.8465,1.8465,1.8539,1.8539,1.854]},{"header":{"parameterUnit":"m.s-1","parameterCategory":1,"la1":30.2991,"la2":30.254,"lo1":-89.0895,"lo2":-89.0444,"dy":0.0017,"dx":0.0017,"nx":28,"ny":28,"refTime":"2024-12-18T03:00:00:Z","depth":0,"parameterNumber":3,"parameterNumberName":"V-component_of_WINDS"},"data":[0,0,0,0,0,0,0,0,0,0,0,0,0,0,0,0,0,0,0,0,0,0,0,0,0,0,0,0,0,0,0,0,0,0,0,0,0,0,0,0,0,0,0,0,0,0,0,0,0,0,0,0,0,0,0,0,0,0,-2.8484,-2.8484,0,-2.8478,-2.8478,-2.8478,-2.8502,-2.8503,-2.8504,-2.8505,-2.8497,-2.8496,-2.8495,0,0,0,0,0,0,0,0,0,0,0,0,0,-2.8518,-2.8517,-2.8484,-2.8484,-2.8484,-2.8478,-2.8478,-2.8478,-2.8502,-2.8503,-2.8504,-2.8505,-2.8497,-2.8496,-2.8495,0,0,0,0,0,0,0,0,0,0,0,0,0,-2.8507,-2.8517,-2.8484,-2.8496,-2.8497,-2.8478,-2.8478,-2.8478,-2.8502,-2.8503,-2.8504,-2.8505,-2.8497,-2.8496,-2.8495,-2.8465,0,0,-2.8491,-2.849,0,0,0,0,0,0,0,0,-2.8507,-2.8506,-2.8494,-2.8495,-2.8496,-2.8492,-2.8487,-2.8474,-2.8502,-2.85,-2.8505,-2.8506,-2.8494,-2.8493,-2.849,-2.8465,-2.8464,-2.8491,-2.849,-2.8489,-2.8489,0,0,0,0,0,0,0,-2.8508,-2.8506,-2.8482,-2.8494,-2.8495,-2.8501,-2.8501,-2.8485,-2.8491,-2.85,-2.8502,-2.8501,-2.8495,-2.8491,-2.849,-2.8464,-2.8491,-2.849,-2.8489,-2.8488,-2.8419,-2.8418,0,0,0,0,0,0,-2.8507,-2.8506,-2.8482,-2.8482,-2.8504,-2.85,-2.8499,-2.8492,-2.8491,-2.8492,-2.85,-2.8502,-2.8493,-2.8491,-2.849,-2.8457,-2.8489,-2.8488,-2.8487,-2.842,-2.8418,-2.8417,0,0,0,0,0,0,-2.8508,-2.8505,-2.8482,-2.8495,-2.8492,-2.8498,-2.849,-2.8492,-2.8488,-2.8491,-2.8493,-2.8495,-2.8494,-2.8491,-2.8472,-2.8457,-2.8488,-2.8486,-2.8421,-2.8419,-2.8418,-2.839,0,0,0,0,0,0,-2.8509,-2.8505,-2.8493,-2.8494,-2.8491,-2.8464,-2.8489,-2.8491,-2.8485,-2.8488,-2.8487,-2.8487,-2.8494,-2.8474,-2.8471,-2.8456,-2.8485,-2.8422,-2.842,-2.8418,-2.8392,-2.8388,-2.8384,0,0,0,0,0,-2.851,-2.8484,-2.8492,-2.8489,-2.8477,-2.8463,-2.8462,-2.847,-2.8484,-2.8473,-2.8476,-2.8487,-2.8459,-2.8472,-2.8468,-2.8453,-2.8423,-2.8421,-2.8418,-2.8394,-2.8388,-2.8384,0,0,0,0,0,0,-2.848,-2.8485,-2.8494,-2.8467,-2.8465,-2.8467,-2.8453,-2.8464,-2.8457,-2.8459,-2.847,-2.847,-2.8449,-2.8449,-2.8463,-2.8426,-2.8444,-2.844,-2.8426,-2.8421,-2.8417,-2.8417,-2.8484,0,0,0,0,0,-2.8471,-2.8459,-2.8464,-2.8441,-2.8439,-2.8446,-2.8441,-2.8448,-2.8446,-2.8445,-2.8446,-2.8443,-2.8434,-2.8428,-2.8419,-2.8393,-2.8394,-2.8381,-2.8376,-2.8373,-2.837,-2.8359,-2.8354,-2.8409,-2.8409,-2.8409,0,0,-2.845,-2.8452,-2.8443,-2.8435,-2.8434,-2.8423,-2.8445,-2.8431,-2.8423,-2.8442,-2.8425,-2.8426,-2.8424,-2.8402,-2.8392,-2.8401,-2.8355,-2.837,-2.8367,-2.8366,-2.8356,-2.8351,-2.8346,-2.8408,-2.8408,-2.8408,0,0,-2.8408,-2.8408,-2.8389,-2.8389,-2.8388,-2.8393,-2.8389,-2.8391,-2.8393,-2.8376,-2.839,-2.8382,-2.8365,-2.8364,-2.8361,-2.8323,-2.8334,-2.832,-2.8297,-2.8286,-2.8282,-2.8278,-2.8266,-2.8262,-2.8317,-2.8317,-2.8317,0,-2.8383,-2.8367,-2.8378,-2.8365,-2.8362,-2.838,-2.8363,-2.8361,-2.8357,-2.8355,-2.8365,-2.8347,-2.8347,-2.8326,-2.8317,-2.8314,-2.831,-2.8319,-2.8282,-2.8278,-2.8275,-2.8263,-2.8259,-2.8315,-2.8315,-2.8315,-2.8316,0,-2.8337,-2.8326,-2.8311,-2.8309,-2.8304,-2.8288,-2.8299,-2.8293,-2.8302,-2.8307,-2.829,-2.8291,-2.8285,-2.8281,-2.8288,-2.8262,-2.8268,-2.828,-2.8298,-2.8267,-2.8257,-2.8253,-2.8313,-2.8313,-2.8314,-2.8314,0,0,-2.8273,-2.828,-2.8275,-2.8275,-2.8277,-2.8269,-2.8256,-2.8251,-2.8246,-2.8243,-2.8233,-2.8221,-2.8233,-2.823,-2.8238,-2.8229,-2.8202,-2.8242,-2.8243,-2.8236,-2.8175,-2.8167,-2.8161,-2.8209,-2.8209,-2.8208,-2.8176,0,-2.8233,-2.8211,-2.8223,-2.8199,-2.819,-2.8209,-2.8198,-2.8198,-2.8204,-2.8197,-2.8203,-2.8195,-2.8211,-2.821,-2.8201,-2.8206,-2.819,-2.8209,-2.8201,-2.8201,-2.8201,-2.8156,-2.8146,-2.8115,-2.8172,-2.8171,-2.8171,0,-2.8182,-2.818,-2.8156,-2.8163,-2.816,-2.8149,-2.8147,-2.8141,-2.8143,-2.8148,-2.8146,-2.8158,-2.8147,-2.8165,-2.8151,-2.8164,-2.8162,-2.8165,-2.8164,-2.8163,-2.8184,-2.8155,-2.8105,-2.8101,-2.8164,-2.8165,-2.8165,0,-2.814,-2.8131,-2.8116,-2.8116,-2.8123,-2.8116,-2.8118,-2.8122,-2.8119,-2.8118,-2.8117,-2.8113,-2.8112,-2.811,-2.8121,-2.8133,-2.8106,-2.8125,-2.8111,-2.811,-2.8103,-2.8104,-2.8053,-2.8101,-2.8101,-2.8101,-2.8101,0,-2.8094,-2.8079,-2.8098,-2.8088,-2.8073,-2.8088,-2.8072,-2.8077,-2.808,-2.8073,-2.809,-2.8083,-2.8098,-2.8093,-2.8102,-2.809,-2.8089,-2.8093,-2.8096,-2.8092,-2.8092,-2.809,-2.8093,-2.81,-2.81,-2.81,-2.8101,0,-2.8044,-2.8055,-2.8041,-2.805,-2.8053,-2.8041,-2.8049,-2.8042,-2.805,-2.8041,-2.804,-2.8052,-2.8047,-2.8059,-2.8055,-2.8061,-2.8045,-2.805,-2.8044,-2.8046,-2.8032,-2.8033,-2.7979,-2.7974,-2.8024,-2.8024,-2.8023,0,-2.8014,-2.8003,-2.8012,-2.8009,-2.8012,-2.8006,-2.8005,-2.802,-2.8017,-2.8022,-2.8014,-2.8011,-2.801,-2.8002,-2.8011,-2.8009,-2.8016,-2.7997,-2.8015,-2.8013,-2.8017,-2.8018,-2.8018,-2.7993,-2.7992,-2.7992,-2.7992,0,-2.796,-2.7967,-2.7964,-2.7964,-2.7962,-2.7963,-2.7964,-2.7961,-2.7978,-2.7975,-2.7971,-2.797,-2.7969,-2.7967,-2.7968,-2.7971,-2.7985,-2.7986,-2.7983,-2.7979,-2.7976,-2.7979,-2.8035,-2.7987,-2.7987,-2.7988,-2.7988,-2.7988,-2.7919,-2.7912,-2.7918,-2.7915,-2.7919,-2.7921,-2.7916,-2.7924,-2.7922,-2.7922,-2.7932,-2.7927,-2.7933,-2.7936,-2.7939,-2.7936,-2.7944,-2.7939,-2.7938,-2.7937,-2.7935,-2.7977,-2.7936,-2.7936,-2.7936,-2.7936,-2.7937,0,-2.7867,-2.7873,-2.7871,-2.7874,-2.7872,-2.7887,-2.789,-2.7888,-2.7884,-2.7889,-2.7888,-2.7886,-2.7885,-2.7895,-2.7896,-2.7892,-2.7898,-2.7891,-2.7892,-2.7893,-2.7927,-2.793,-2.7886,-2.7886,-2.7886,-2.7886,-2.7886,-2.7886,-2.784,-2.7829,-2.7838,-2.783,-2.7836,-2.7832,-2.7833,-2.7836,-2.784,-2.7837,-2.7837,-2.7844,-2.7852,-2.7854,-2.7854,-2.7858,-2.7858,-2.7849,-2.7854,-2.7885,-2.789,-2.7895,-2.7898,-2.7849,-2.7849,-2.7821,-2.7821,-2.7821]}]]